Regional Weather Roundup
Issued by NWS Nashville, TN

Home | Current Version | Previous Version | Text Only | Print | Product List | Glossary On
Versions: 1 2 3 4 5 6 7 8 9 10 11 12 13 14 15 16 17 18 19 20 21 22 23 24 25 26 27 28 29 30 31 32 33 34 35 36 37 38 39 40 41 42 43 44 45 46 47 48 49 50
416
ASUS44 KOHX 200910
RWROHX
MIDDLE TENNESSEE HOURLY WEATHER ROUNDUP
NATIONAL WEATHER SERVICE NASHVILLE TN
300 AM CST MON FEB 20 2017

NOTE: "FAIR" INDICATES FEW OR NO CLOUDS BELOW 12,000 FEET WITH
NO SIGNIFICANT WEATHER AND/OR OBSTRUCTIONS TO VISIBILITY.

* THESE REPORTS ARE NOT UNDER NWS QUALITY CONTROL AND MAY NOT
  REPORT WEATHER SUCH AS PRECIPITATION AND FOG.


TNZ005>011-023>034-057-059-062>066-078-080-201000
...NORTHERN MIDDLE TENNESSEE...

CITY           SKY/WX    TMP DP  RH WIND       PRES   REMARKS
CLARKSVILLE    CLOUDY    46  44  93 E6        30.12S FOG
CROSSVILLE     CLOUDY    42  40  92 CALM      30.16S
GALLATIN       FOG       41  41 100 CALM      30.16F VSB 1/2
DICKSON        CLOUDY    48  47  97 CALM      30.11F
LIVINGSTON     CLOUDY    53  44  71 CALM      30.15S
NASHVILLE      CLOUDY    48  46  93 CALM      30.13F
PORTLAND       CLEAR     43  43 100 CALM      30.13F
SMYRNA         PTCLDY    43  42  97 CALM      30.14F
SPARTA         CLEAR     39  39 100 CALM      30.14S FOG
SPRINGFIELD    PTCLDY    50  48  93 CALM      30.11F
WEST NASHVILLE CLEAR     46  46 100 NE3       30.13F
$$
TNZ056-058-060-061-075>077-079-093>097-201000
...SOUTHERN MIDDLE TENNESSEE...

CITY           SKY/WX    TMP DP  RH WIND       PRES   REMARKS
COLUMBIA       CLEAR    N/A N/A N/A CALM      30.10F
FAYETTEVILLE   CLEAR     50  48  93 CALM      30.13S
LEWISBURG      PTCLDY    40  40 100 CALM      30.12F
MCMINNVILLE    CLEAR     43  43 100 CALM      30.14S
MURFREESBORO   PTCLDY    46  45  97 CALM      30.13F
SHELBYVILLE    CLEAR     48  48 100 E5        30.13F
TULLAHOMA      CLEAR     43  43 100 CALM      30.13F
WINCHESTER     CLEAR     39  39 100 E3        30.13F
$$


...KEY TO REMARKS...
VSB - VISIBILITY IN MILES
WCI - WIND CHILL INDEX
HX  - HEAT INDEX





USA.gov is the U.S. government's official web portal to all federal, state and local government web resources and services.